Grand Forks International Airport
KGFK : now visible

Airfield :











YOU CAN JOIN US ON...

 
LOGIN :

Register | Disclaimer

   EN    FR    IT 

 









Legend :    VFR   Marginal VFR   IFR   Intensive IFR   Very Intensive IFR
Visi :
Ceiling :
>= 8 km
>= 3000ft
5 to 8 km
1000 to 3000 ft
1500m to 5 km
500 to 1000 ft
800 to 1500m
200 to 500 ft
< 800m
< 200 ft
Symbols :   Thunderstorms  Fog  Heavy snow  Heavy precipitations  Wind > 20 kt






- Airport Elevation : 845 ft
- IATA code : GFK


KGFK - Grand Forks International

CURRENT METAR :
  • 190853Z AUTO 06006KT 7SM -SN OVC048 M16/M19 A3013 RMK AO2 SNB0755 SLP225 P0000 60000 T11561194 53007

EXPIRED METARs :
  • 190753Z AUTO 10004KT 10SM OVC055 M16/M19 A3011 RMK AO2 SLP219 T11611194
  • 190653Z AUTO 13004KT 10SM BKN055 BKN100 M16/M19 A3010 RMK AO2 SLP217 T11611194

TAF KGFK
Valid from the 19 at 06:00 until the 20 at 06:00 UTC


190535Z 1906/2006 VRB04KT P6SM OVC070
FM191000 VRB03KT P6SM -SN BKN025
FM191600 34006KT P6SM OVC035
FM192200 27006KT P6SM BKN180
KZMP FIR / North America



MET'MAP, your aeronautical weather chart ! - Copyright ORBIFLY December 2007 - Disclaimer

ORBIFLY MET'MAP TEAM :

Programming & Development : Alexandra Zaïnal
Concept & original design : Baudouin d'Aumeries
Assistance for programming : Marc-Olivier Méhu
Technical & hardware support : Manuel Goepfert

Contact : metmap@orbifly.com




SOURCES & CREDITS :

   NOAA       Earth
Advisory